Location: Vancouver
(49.2500°N, 123.1330°W)
Time: 19:10:55
(UTC-07:00)

YAOGAN 6 - Visible Passes

Search period start: 29 August 2014 00:00
Search period end: 08 September 2014 00:00
Orbit: 483 x 527 km, 97.3° (Epoch: 29 August)

Date Brightness Start Highest point End Pass type
(mag) Time Alt. Az. Time Alt. Az. Time Alt. Az.
29 Aug 4.4 22:03:26 19° ENE 22:03:26 19° ENE 22:05:57 10° NNE visible
29 Aug 4.5 23:38:13 29° NW 23:38:13 29° NW 23:40:25 10° NNW visible
30 Aug 4.8 21:45:16 13° ENE 21:45:25 13° ENE 21:47:09 10° NNE visible
30 Aug 4.1 23:20:03 37° NNW 23:20:03 37° NNW 23:22:29 10° NNW visible
31 Aug 3.8 23:01:53 41° N 23:01:53 41° N 23:04:25 10° N visible
01 Sep 3.8 22:43:42 35° NNE 22:43:42 35° NNE 22:46:15 10° N visible
02 Sep 5.6 00:18:30 12° WNW 00:18:30 12° WNW 00:19:03 10° NW visible
02 Sep 4.1 22:25:32 27° NE 22:25:32 27° NE 22:27:57 10° N visible
03 Sep 5.3 00:00:19 17° NW 00:00:19 17° NW 00:01:35 10° NW visible
03 Sep 4.5 22:07:21 20° NE 22:07:21 20° NE 22:09:31 10° NNE visible
03 Sep 5.0 23:42:08 22° NW 23:42:08 22° NW 23:43:49 10° NNW visible
04 Sep 4.8 21:49:10 14° NE 21:49:10 14° NE 21:50:48 10° NNE visible
04 Sep 4.7 23:23:57 28° NNW 23:23:57 28° NNW 23:25:53 10° NNW visible
05 Sep 4.4 23:05:46 31° N 23:05:46 31° N 23:07:49 10° NNW visible
06 Sep 4.3 22:47:34 29° N 22:47:34 29° N 22:49:39 10° N visible
07 Sep 4.4 22:29:22 25° NNE 22:29:22 25° NNE 22:31:21 10° N visible
